User: anonymous   Login
Location: Mt. Chestnut Observatory
(40.9038°N, 79.9956°W)
Time: 12:33:27
(UTC-04:00)
Language:

Cosmos 2034 Rocket - Orbit

View from above orbital plane
View from above orbital plane
View from above satellite
View from above satellite

Ground track
Ground track

The orbit data is extracted from the following two-line orbital elements,

1 20150U 89059B   17262.85865124 -.00000001 +00000-0 -16405-4 0  9999
2 20150 082.9422 023.8513 0029316 020.6760 089.6702 13.75632549413196
Epoch (UTC): 19 September 2017 20:36:27
Eccentricity: 0.0029316
inclination: 82.9422°
perigee height: 958 km
apogee height: 1001 km
right ascension of ascending node: 23.8513°
argument of perigee: 20.6760°
revolutions per day: 13.75632549
mean anomaly at epoch: 89.6702°
orbit number at epoch: 41319

The dashed part of the orbit path shows where the satellite is in the earth's shadow,  

DLR